Date String (YYYY-MM-DD hh:mm:ss) UTC,Instrument flags,Ambient pressure (hPa),Sample flow (lpm),Bypass flow (lpm),Sample temperature (°C),Ambient temperature (°C),ASC tube jacket temperature (°C),LED temperature (°C),Box temperature (°C),Sample RH (%),Span deviation,Mass concentration (μg/m³),Mass concentration (μg/m³),Mass concentration (μg/m³)
DateTimeUTC,F1_M11,P_M11,Q1_M11,Q2_M11,T1_M11,T2_M11,T3_M11,T4_M11,T5_M11,U1_M11,ZSPAN_M11,X0_M11,X2_M11,X1_M11
2023-03-04 17:00:00,,0821.4,4.98,0.00,22.5,20.8,00.0,31.3,24.2,14.9,-001.1,0012.02,0009.45,0009.03
2023-03-04 17:01:00,,0821.4,5.01,0.00,22.5,20.8,00.0,31.3,24.2,15.0,-001.2,0012.04,0009.45,0009.03
2023-03-04 17:02:00,,0821.4,5.04,0.00,22.5,21.4,00.0,31.3,24.3,14.9,-001.2,0012.06,0009.43,0009.00
2023-03-04 17:03:00,,0821.4,5.00,0.00,22.6,22.9,00.0,31.3,24.6,14.8,-001.2,0012.03,0009.39,0008.97
2023-03-04 17:04:00,,0821.4,5.02,0.00,22.8,23.5,00.0,31.3,24.8,14.7,-001.2,0011.96,0009.34,0008.92
2023-03-04 17:05:00,,0821.3,5.00,0.00,22.8,23.2,00.0,31.4,24.8,14.6,-001.4,0011.96,0009.31,0008.91
2023-03-04 17:06:00,,0821.3,4.99,0.00,22.9,22.7,00.0,31.4,24.8,14.6,-001.2,0011.87,0009.26,0008.89
2023-03-04 17:07:00,,0821.3,5.01,0.00,22.9,22.4,00.0,31.4,24.7,14.5,-001.5,0011.83,0009.25,0008.90
2023-03-04 17:08:00,,0821.3,5.00,0.00,22.9,22.1,00.0,31.5,24.7,14.4,-001.6,0011.87,0009.28,0008.90
2023-03-04 17:09:00,,0821.3,5.00,0.00,22.9,21.8,00.0,31.5,24.7,14.4,-001.7,0011.87,0009.31,0008.94
2023-03-04 17:10:00,,0821.3,5.00,0.00,22.9,21.6,00.0,31.5,24.6,14.4,-001.8,0011.88,0009.32,0008.97
2023-03-04 17:11:00,,0821.4,5.00,0.00,22.8,21.5,00.0,31.5,24.6,14.5,-001.6,0011.89,0009.35,0008.99
2023-03-04 17:12:00,,0821.4,5.00,0.00,22.8,21.4,00.0,31.5,24.5,14.6,-001.7,0011.99,0009.40,0009.02
2023-03-04 17:13:00,,0821.4,5.00,0.00,22.8,21.3,00.0,31.5,24.5,14.5,-001.7,0012.41,0009.47,0009.07
2023-03-04 17:14:00,,0821.4,5.01,0.00,22.8,21.1,00.0,31.5,24.5,14.4,-001.7,0012.78,0009.56,0009.15
2023-03-04 17:15:00,,0821.4,5.00,0.00,22.8,21.0,00.0,31.5,24.4,14.4,-001.7,0012.91,0009.66,0009.23
2023-03-04 17:16:00,,0821.4,5.00,0.00,22.7,21.0,00.0,31.5,24.4,14.5,-001.6,0012.92,0009.71,0009.30
2023-03-04 17:17:00,,0821.3,5.00,0.00,22.7,20.9,00.0,31.5,24.4,14.5,-001.5,0012.96,0009.77,0009.35
2023-03-04 17:18:00,,0821.4,5.00,0.00,22.7,20.8,00.0,31.5,24.3,14.6,-001.3,0012.96,0009.80,0009.39
2023-03-04 17:19:00,,0821.4,4.99,0.00,22.6,20.7,00.0,31.5,24.3,14.6,-001.2,0012.90,0009.80,0009.43
2023-03-04 17:20:00,,0821.4,5.00,0.00,22.6,20.7,00.0,31.4,24.3,14.5,-001.0,0013.01,0009.86,0009.48
2023-03-04 17:21:00,,0821.4,5.01,0.00,22.6,20.7,00.0,31.4,24.3,14.8,-000.6,0013.04,0009.88,0009.49
2023-03-04 17:22:00,,0821.4,5.01,0.00,22.6,20.8,00.0,31.4,24.3,15.5,-000.6,0012.98,0009.83,0009.45
2023-03-04 17:23:00,,0821.4,5.02,0.00,22.6,20.8,00.0,31.4,24.3,15.4,-000.3,0012.85,0009.77,0009.40
2023-03-04 17:24:00,,0821.2,5.01,0.00,22.6,20.8,00.0,31.4,24.3,15.1,-000.2,0012.39,0009.68,0009.33
2023-03-04 17:25:00,,0821.2,4.98,0.00,22.6,20.8,00.0,31.4,24.3,15.0,0000.0,0012.01,0009.58,0009.23
2023-03-04 17:26:00,,0821.2,4.99,0.00,22.6,20.8,00.0,31.4,24.3,15.0,-000.2,0011.97,0009.49,0009.13
2023-03-04 17:27:00,,0821.2,4.99,0.00,22.6,20.8,00.0,31.4,24.3,15.2,-000.2,0011.91,0009.41,0009.04
2023-03-04 17:28:00,,0821.2,5.01,0.00,22.5,20.8,00.0,31.3,24.3,15.0,-000.4,0011.82,0009.31,0008.96
2023-03-04 17:29:00,,0821.2,5.00,0.00,22.5,20.8,00.0,31.3,24.3,14.9,-000.4,0011.76,0009.23,0008.86
2023-03-04 17:30:00,,0821.2,5.01,0.00,22.5,20.9,00.0,31.3,24.3,14.9,-000.2,0011.65,0009.14,0008.76
2023-03-04 17:31:00,,0821.2,5.00,0.00,22.5,20.9,00.0,31.3,24.3,14.9,-000.3,0011.52,0009.02,0008.66
2023-03-04 17:32:00,,0821.2,4.98,0.00,22.5,21.0,00.0,31.3,24.3,14.7,-000.3,0011.44,0008.94,0008.59
2023-03-04 17:33:00,,0821.2,5.00,0.00,22.5,21.0,00.0,31.3,24.3,14.4,-000.4,0011.59,0008.94,0008.55
2023-03-04 17:34:00,,0821.1,5.00,0.00,22.5,21.0,00.0,31.3,24.3,14.4,-000.8,0011.59,0008.91,0008.53
2023-03-04 17:35:00,,0821.1,5.00,0.00,22.6,21.0,00.0,31.3,24.3,14.5,-000.7,0011.67,0008.89,0008.52
2023-03-04 17:36:00,,0821.1,5.00,0.00,22.6,21.0,00.0,31.3,24.3,14.5,-000.8,0011.91,0008.85,0008.51
2023-03-04 17:37:00,,0821.1,5.01,0.00,22.5,20.9,00.0,31.3,24.3,14.3,-000.8,0011.86,0008.85,0008.52
2023-03-04 17:38:00,,0821.1,5.00,0.00,22.5,20.8,00.0,31.3,24.2,14.5,-000.6,0011.81,0008.83,0008.54
2023-03-04 17:39:00,,0821.1,4.99,0.00,22.5,20.8,00.0,31.3,24.2,14.7,-000.9,0011.79,0008.81,0008.52
2023-03-04 17:40:00,,0821.1,5.00,0.00,22.5,20.7,00.0,31.3,24.2,14.7,-001.0,0011.79,0008.82,0008.52
2023-03-04 17:41:00,,0821.2,4.99,0.00,22.5,20.7,00.0,31.3,24.2,14.6,-001.1,0011.85,0008.81,0008.50
2023-03-04 17:42:00,,0821.1,5.00,0.00,22.5,20.8,00.0,31.3,24.2,14.5,-001.1,0011.93,0008.82,0008.49
2023-03-04 17:43:00,,0821.1,4.99,0.00,22.5,20.7,00.0,31.3,24.2,14.5,-001.3,0012.08,0008.87,0008.51
2023-03-04 17:44:00,,0821.1,4.99,0.00,22.5,20.7,00.0,31.3,24.2,14.5,-001.5,0012.11,0008.91,0008.54
2023-03-04 17:45:00,,0821.0,5.00,0.00,22.4,20.7,00.0,31.2,24.2,14.6,-001.5,0012.13,0008.93,0008.56
2023-03-04 17:46:00,,0821.0,5.01,0.00,22.4,20.7,00.0,31.2,24.2,14.6,-001.7,0012.14,0008.94,0008.56
2023-03-04 17:47:00,,0821.0,5.01,0.00,22.4,20.8,00.0,31.2,24.2,14.7,-001.8,0011.82,0008.94,0008.56
2023-03-04 17:48:00,,0821.0,4.99,0.00,22.4,20.7,00.0,31.2,24.2,14.7,-001.5,0011.79,0008.91,0008.53
2023-03-04 17:49:00,,0821.1,4.99,0.00,22.4,20.7,00.0,31.2,24.2,15.2,-001.5,0011.79,0008.88,0008.48
2023-03-04 17:50:00,,0821.1,4.98,0.00,22.4,20.7,00.0,31.2,24.2,15.0,-001.2,0011.75,0008.86,0008.47
2023-03-04 17:51:00,,0821.0,5.00,0.00,22.4,20.7,00.0,31.2,24.1,14.2,-001.1,0011.77,0008.86,0008.47
2023-03-04 17:52:00,,0821.0,5.01,0.00,22.4,20.6,00.0,31.2,24.1,14.0,-001.2,0011.77,0008.88,0008.49
2023-03-04 17:53:00,,0821.0,5.00,0.00,22.4,20.6,00.0,31.2,24.1,13.9,-001.3,0011.72,0008.89,0008.52
2023-03-04 17:54:00,,0821.1,5.01,0.00,22.4,20.6,00.0,31.2,24.1,14.3,-001.1,0011.61,0008.88,0008.51
2023-03-04 17:55:00,,0821.0,5.00,0.00,22.4,20.7,00.0,31.2,24.1,15.0,-001.2,0011.56,0008.85,0008.49
2023-03-04 17:56:00,,0821.1,5.00,0.00,22.4,20.7,00.0,31.2,24.1,15.0,-001.2,0011.46,0008.79,0008.44
2023-03-04 17:57:00,,0821.0,5.01,0.00,22.4,20.7,00.0,31.2,24.1,14.7,-001.2,0011.39,0008.75,0008.42
2023-03-04 17:58:00,,0821.0,5.00,0.00,22.3,20.7,00.0,31.1,24.1,14.7,-001.1,0011.93,0008.76,0008.42
2023-03-04 17:59:00,,0821.0,5.00,0.00,22.3,20.6,00.0,31.1,24.1,14.8,-001.1,0011.99,0008.75,0008.43
